7 * 24
多渠道服务支持
NAVSTAR 63(又名USA 203)是美国于2009年3月24日发射的GPS导航卫星,属于美国GPS全球定位系统组网卫星,服务全球军民用户的定位、导航与授时需求。作为美军GPS现代化进程中的组网卫星,它提升了系统定位精度与抗干扰能力,保障全球范围导航服务稳定性,延续GPS系统覆盖能力,支撑民用导航与军事作战的导航需求,目前仍在轨发挥组网功能。
美国
(US)
| 数据来源 | 国际轨道数据 |
| 星历时间: | 2026-06-24T02:47:06+0800 17小时前 查看轨道信息 |
| 半长轴: | 26559.484km |
| 偏心率: | 0.0143397 |
| 轨道倾角: | 54.483° |
| 近地点辐角 | 61.370° |
| 升交点赤经 | 210.391° |
| 平近点角 | 117.413° |
| 近地点: | 19800.491km |
| 远地点: | 20562.203km |
| 周期: | 717.942分钟 |
| 每日圈数: | 2.005734 |